Burnet, TX

3:38 PM CST on January 19, 2018 (GMT -0600)
Burnet Municipal-Craddock

Weather History for KBMQ - December, 2012

Change the Weather History Date:

Thursday, December 13, 2012

  Actual Average Record
Temperature  
Mean Temperature 50 °F -  
Max Temperature 64 °F 58 °F 73 °F (2006)
Min Temperature 35 °F 36 °F 21 °F (1997)
Degree Days  
Heating Degree Days 16    
Moisture  
Dew Point 32 °F    
Average Humidity 52    
Maximum Humidity 70    
Minimum Humidity 38    
Precipitation  
Precipitation 0.00 in - - ()
Sea Level Pressure  
Sea Level Pressure 30.24 in    
Wind  
Wind Speed 3 mph (SSE)    
Max Wind Speed 15 mph    
Max Gust Speed 21 mph    
Visibility 10 miles    
Events      
Averages and records for this station are not official NWS values.
T = Trace of Precipitation, MM = Missing Value Source: NWS Daily Summary

Daily Weather History Graph

Daily Weather History Graph

Search for Another Location

Airport or City:

Trip Planner

Search our weather history database for the weather conditions in past years. The results will help you decide how hot, cold, wet, or windy it might be!

Date:

Astronomy

Dec. 13, 2012 Rise Set
Actual Time 7:22 AM CST 5:32 PM CST
Civil Twilight 6:55 AM CST 5:59 PM CST
Nautical Twilight 6:25 AM CST 6:29 PM CST
Astronomical Twilight 5:56 AM CST 6:58 PM CST
Moon 7:33 AM CST (12/13) 6:15 PM CST (12/13)
Length of Visible Light 11h 03m
Length of Day
10h 10m
New Moon, 0% of the Moon is Illuminated
Dec 13
New Moon
Dec 19
First Quarter
Dec 28
Full
Jan 4
Last Quarter
Jan 11
New

Hourly Weather History & Observations

Time (CST) Temp. Windchill Dew Point Humidity Pressure Visibility Wind Dir Wind Speed Gust Speed Precip Events Conditions
12:53 AM 41.0 °F - 21.9 °F 47% 30.26 in 10.0 mi Calm Calm - N/A   Clear
1:53 AM 37.9 °F - 21.9 °F 53% 30.25 in 10.0 mi Calm Calm - N/A   Clear
2:53 AM 35.1 °F - 21.0 °F 57% 30.25 in 10.0 mi Calm Calm - N/A   Clear
3:53 AM 36.0 °F - 23.0 °F 59% 30.25 in 10.0 mi Calm Calm - N/A   Clear
4:53 AM 37.9 °F - 24.1 °F 57% 30.25 in 10.0 mi Calm Calm - N/A   Clear
5:53 AM 37.0 °F - 26.1 °F 65% 30.25 in 10.0 mi Calm Calm - N/A   Clear
6:53 AM 37.0 °F - 27.0 °F 67% 30.27 in 10.0 mi Calm Calm - N/A   Clear
7:53 AM 37.9 °F 35.5 °F 28.9 °F 70% 30.28 in 10.0 mi NNE 3.5 mph - N/A   Clear
8:53 AM 43.0 °F 41.3 °F 30.9 °F 62% 30.29 in 10.0 mi Variable 3.5 mph - N/A   Clear
9:53 AM 50.0 °F - 30.9 °F 48% 30.30 in 10.0 mi South 8.1 mph - N/A   Clear
10:53 AM 54.0 °F - 36.0 °F 51% 30.30 in 10.0 mi Variable 6.9 mph - N/A   Clear
11:53 AM 57.0 °F - 37.0 °F 47% 30.27 in 8.0 mi SSE 8.1 mph - N/A   Clear
12:53 PM 63.0 °F - 41.0 °F 45% 30.23 in 10.0 mi South 15.0 mph 20.7 mph N/A   Clear
1:53 PM 64.9 °F - 43.0 °F 45% 30.20 in 8.0 mi South 13.8 mph 20.7 mph N/A   Clear
2:53 PM 64.0 °F - 44.1 °F 48% 30.18 in 10.0 mi South 10.4 mph 19.6 mph N/A   Overcast
3:53 PM 63.0 °F - 45.0 °F 52% 30.17 in 4.0 mi SSE 8.1 mph - N/A   Haze
7:53 PM 60.1 °F - 35.1 °F 39% 30.20 in 10.0 mi SSE 5.8 mph - N/A   Overcast
8:53 PM 59.0 °F - 34.0 °F 39% 30.19 in 10.0 mi SSE 5.8 mph - N/A   Overcast
9:53 PM 59.0 °F - 33.1 °F 38% 30.18 in 10.0 mi South 5.8 mph - N/A   Overcast
10:53 PM 57.9 °F - 34.0 °F 41% 30.18 in 10.0 mi SSE 5.8 mph - N/A   Overcast